OAO 2

Last updated on Thu Oct 30 2025 00:02:14 GMT+0000 (Coordinated Universal Time)

1 03597U 68110A 25302.21929663 .00000408 00000+0 11535-3 0 9999 2 03597 34.9936 279.1970 0006048 226.6631 133.3555 14.47202896 41
UTC large
Height (km)
Speed (km/s)
/
Latitude / Longitude
Inclination (degrees)
Orbital Period (minutes)
Azimuth
Elevation
Range (km)
Doppler Factor

Next 0 passes for location: London (51.5072 / 0.1276)

Sorry there are no passes over London.